Weather Roundup
Issued by NWS Chicago, IL

Home | Current Version | Previous Version | Graphics & Text | Print | Product List | Glossary On
Versions: 1 2 3 4 5 6 7 8 9 10 11 12 13 14 15 16 17 18 19 20 21 22 23 24 25 26 27 28 29 30 31 32 33 34 35 36 37 38 39 40 41 42 43 44 45 46 47 48 49 50
286
NZUS59 KLOT 290708
HRRLOT

CHICAGO AREA WEATHER ROUNDUP
NATIONAL WEATHER SERVICE CHICAGO/ROMEOVILLE IL
200 AM CDT THU SEP 29 2016

NOTE: "FAIR" INDICATES FEW OR NO CLOUDS BELOW 12,000 FEET WITH NO
SIGNIFICANT WEATHER AND/OR OBSTRUCTIONS TO VISIBILITY.

* THESE STATIONS ARE NOT UNDER NWS QUALITY CONTROL. THEY ALSO MAY NOT
  REPORT WEATHER SUCH AS PRECIPITATION OR FOG.

ILZ005-006-012>014-019>023-290800-
NORTHEAST ILLINOIS

CITY           SKY/WX    TMP DP  RH WIND       PRES   REMARKS
OHARE          MOCLDY    60  55  83 N17       30.07S
MIDWAY         CLOUDY    60  55  83 N17       30.05S
AURORA         CLEAR     58  53  84 N15       30.09S
LANSING*       CLOUDY    62  58  86 NE15G21   30.03S
JOLIET*        MOCLDY    59  56  91 N12       30.06S
WAUKEGAN       CLEAR     58  55  90 N14G22    30.10S
DUPAGE AIRPORT CLEAR     58  53  84 N14       30.08S
WHEELING       CLOUDY    59  55  87 N14       30.10R
KANKAKEE*      DRIZZLE   57  55  95 NW9       30.04S
MORRIS*        MOCLDY    57  54  90 N5        30.06S
LEWIS AIRPORT* MOCLDY    57  57 100 N13G20    30.06F
NORTHERLY ISL    N/A     62  56  80 N13         N/A
$$

WIZ051-052-058>065-066-070>072-290800-
SOUTHEAST WISCONSIN

CITY           SKY/WX    TMP DP  RH WIND       PRES   REMARKS
MILWAUKEE      MOCLDY    60  56  86 N24G32    30.15S
KENOSHA*       PTCLDY    58  55  90 N13       30.13R
RACINE*        CLOUDY    57  55  93 N17G25    30.15S
BURLINGTON     MOCLDY    55  53  90 N14G20    30.15S
WAUKESHA       CLOUDY    54  52  94 N10G16    30.18S
WEST BEND      CLOUDY    55  54  94 N15G24    30.19S
$$

INZ001>003-010>013-019-020-290800-
NORTHWEST INDIANA

CITY           SKY/WX    TMP DP  RH WIND       PRES   REMARKS
GARY*          CLOUDY    64  57  78 NE16G24   30.04S
MICHIGAN CITY* NOT AVBL
RENSSELAER*    NOT AVBL
VALPARAISO     LGT RAIN  57  55  93 N8        30.02S
$$

LMZ740>746-290800-
SOUTHERN LAKE MICHIGAN

STATION/POSITION TIME  SKY/WX   TEMP WIND        PRES    VSBY
                                AIR  DIR/SP/G
                 (UTC)          (F)  (DEG/KT/KT) (MB)    (MI)
HARRISON CRIB    0640            65   20/ 27/ 28   N/A
BURNHAM HARBOR   0700            62  350/ 12/ 18   N/A
CALUMET HARBOR   0642                 10/ 15/ 23 1016.8R
BURNS HARBOR     0606            62   40/ 21/ 25 1016.6
MICHIGAN CITY    0640            60   20/ 27/ 30   N/A
$$

ABBREVIATIONS USED IN REMARKS
   TC - TEMPERATURE IN CELSIUS
  WCI - WIND CHILL INDEX
   HX - HEAT INDEX
  VSB - VISIBILITY
$$




USA.gov is the U.S. government's official web portal to all federal, state and local government web resources and services.